MBU455 EDDB-EFKT

Flight info

Callsign MBU455
Flight time 2h 16m
Altitude 39000
Route EDDB/06L GERGA3B GERGA M725 RENKI L132 DEMUR DCT LUSID DCT REMBO DCT SIPRI DCT BESLA DCT ASKEB DCT PERKE DCT EVIMI EVIMI2A EFKT/34
Aircraft A20N/M-V/N

Departure

Time 2026-05-08 16:13
Airport Berlin Brandenburg Airport (EDDB)

Arrival

Time 2026-05-08 18:29
Airport Kittilä International Airport (EFKT)
Time Latitude Longitude Altitude Speed Heading
2026-05-08 15:33 52.36544 13.50521 152 ft 0 kts 70°
2026-05-08 16:01 52.36537 13.50488 152 ft 4 kts 69°
2026-05-08 16:01 52.36527 13.50447 152 ft 4 kts 68°
2026-05-08 16:02 52.36516 13.50406 152 ft 4 kts 65°
2026-05-08 16:02 52.36505 13.50367 152 ft 4 kts 62°
2026-05-08 16:02 52.36491 13.50329 152 ft 4 kts 50°
2026-05-08 16:02 52.36473 13.50305 152 ft 4 kts 352°
2026-05-08 16:03 52.36469 13.50305 152 ft 1 kts 339°
2026-05-08 16:06 52.36476 13.50300 152 ft 4 kts 339°
2026-05-08 16:06 52.36524 13.50271 152 ft 11 kts 339°
2026-05-08 16:06 52.36611 13.50217 152 ft 15 kts 339°
2026-05-08 16:06 52.36691 13.50145 152 ft 10 kts 293°
2026-05-08 16:07 52.36730 13.50065 153 ft 6 kts 333°
2026-05-08 16:07 52.36740 13.50057 153 ft 0 kts 335°
2026-05-08 16:08 52.36746 13.50052 154 ft 3 kts 336°
2026-05-08 16:08 52.36780 13.50024 155 ft 8 kts 319°
2026-05-08 16:08 52.36766 13.49925 155 ft 12 kts 250°
2026-05-08 16:09 52.36732 13.49763 155 ft 18 kts 250°
2026-05-08 16:09 52.36682 13.49545 156 ft 22 kts 248°
2026-05-08 16:09 52.36626 13.49309 157 ft 24 kts 249°
2026-05-08 16:09 52.36566 13.49039 158 ft 28 kts 250°
2026-05-08 16:10 52.36506 13.48771 157 ft 18 kts 250°
2026-05-08 16:10 52.36459 13.48556 154 ft 17 kts 251°
2026-05-08 16:10 52.36435 13.48429 153 ft 2 kts 259°
2026-05-08 16:10 52.36447 13.48408 153 ft 3 kts 345°
2026-05-08 16:11 52.36471 13.48411 153 ft 1 kts 340°
2026-05-08 16:11 52.36500 13.48394 153 ft 7 kts 340°
2026-05-08 16:11 52.36561 13.48357 154 ft 9 kts 339°
2026-05-08 16:11 52.36633 13.48306 156 ft 13 kts 337°
2026-05-08 16:12 52.36714 13.48327 158 ft 12 kts 40°
2026-05-08 16:12 52.36745 13.48409 159 ft 7 kts 70°
2026-05-08 16:12 52.36787 13.48589 160 ft 52 kts 69°
2026-05-08 16:12 52.37053 13.49680 161 ft 147 kts 68°
2026-05-08 16:13 52.37472 13.51486 664 ft 175 kts 70°
2026-05-08 16:13 52.37853 13.53286 1786 ft 159 kts 70°
2026-05-08 16:13 52.38215 13.54939 2730 ft 152 kts 59°
2026-05-08 16:13 52.38646 13.56467 3651 ft 145 kts 65°
2026-05-08 16:14 52.39047 13.58022 4368 ft 158 kts 67°
2026-05-08 16:14 52.39477 13.59764 4966 ft 176 kts 64°
2026-05-08 16:14 52.39972 13.61713 5603 ft 194 kts 68°
2026-05-08 16:14 52.40479 13.63880 6232 ft 215 kts 68°
2026-05-08 16:15 52.41027 13.66275 6905 ft 235 kts 69°
2026-05-08 16:15 52.41611 13.68859 7665 ft 249 kts 65°
2026-05-08 16:15 52.42298 13.71540 8440 ft 259 kts 64°
2026-05-08 16:15 52.43181 13.74160 9108 ft 272 kts 47°
2026-05-08 16:16 52.44761 13.75949 9707 ft 284 kts 19°
2026-05-08 16:16 52.46691 13.76777 10493 ft 291 kts 13°
2026-05-08 16:16 52.48721 13.77477 10815 ft 313 kts 13°
2026-05-08 16:16 52.50920 13.78296 11119 ft 334 kts 14°
2026-05-08 16:17 52.53197 13.79214 11817 ft 339 kts 14°
2026-05-08 16:17 52.55499 13.80181 12625 ft 343 kts 14°
2026-05-08 16:17 52.57821 13.81178 13407 ft 347 kts 14°
2026-05-08 16:17 52.60168 13.82200 14182 ft 350 kts 14°
2026-05-08 16:18 52.62533 13.83237 14891 ft 354 kts 14°
2026-05-08 16:18 52.64927 13.84290 15562 ft 358 kts 14°
2026-05-08 16:18 52.67345 13.85356 16232 ft 362 kts 14°
2026-05-08 16:18 52.69798 13.86444 16883 ft 367 kts 14°
2026-05-08 16:19 52.72245 13.87536 17511 ft 372 kts 14°
2026-05-08 16:19 52.74757 13.88660 18156 ft 376 kts 14°
2026-05-08 16:19 52.77293 13.89794 18769 ft 380 kts 14°
2026-05-08 16:19 52.79821 13.91130 19323 ft 384 kts 19°
2026-05-08 16:20 52.82338 13.92645 19903 ft 386 kts 19°
2026-05-08 16:20 52.84880 13.94148 20510 ft 389 kts 19°
2026-05-08 16:20 52.87436 13.95681 21054 ft 393 kts 19°
2026-05-08 16:20 52.90009 13.97253 21616 ft 396 kts 19°
2026-05-08 16:21 52.92607 13.98859 22160 ft 400 kts 19°
2026-05-08 16:21 52.95182 14.00461 22711 ft 403 kts 19°
2026-05-08 16:21 52.97813 14.02106 23252 ft 406 kts 19°
2026-05-08 16:21 53.00467 14.03768 23795 ft 409 kts 19°
2026-05-08 16:22 53.03136 14.05440 24262 ft 411 kts 20°
2026-05-08 16:22 53.05815 14.07122 24771 ft 412 kts 20°
2026-05-08 16:22 53.08505 14.08812 25226 ft 415 kts 20°
2026-05-08 16:22 53.11212 14.10515 25667 ft 417 kts 20°
2026-05-08 16:23 53.13933 14.12230 26124 ft 419 kts 20°
2026-05-08 16:23 53.16628 14.13930 26555 ft 421 kts 20°
2026-05-08 16:23 53.19372 14.15665 26980 ft 423 kts 20°
2026-05-08 16:23 53.22133 14.17412 27391 ft 425 kts 20°
2026-05-08 16:24 53.24906 14.19169 27777 ft 428 kts 21°
2026-05-08 16:24 53.27697 14.20940 28171 ft 430 kts 21°
2026-05-08 16:24 53.30497 14.22720 28533 ft 432 kts 21°
2026-05-08 16:24 53.33313 14.24513 28886 ft 434 kts 21°
2026-05-08 16:25 53.36145 14.26319 29230 ft 437 kts 21°
2026-05-08 16:25 53.38991 14.28136 29558 ft 439 kts 21°
2026-05-08 16:25 53.41815 14.29941 29873 ft 441 kts 21°
2026-05-08 16:25 53.44690 14.31781 30196 ft 444 kts 21°
2026-05-08 16:26 53.47582 14.33636 30469 ft 446 kts 21°
2026-05-08 16:26 53.50497 14.35508 30671 ft 450 kts 21°
2026-05-08 16:26 53.53434 14.37397 30892 ft 454 kts 21°
2026-05-08 16:26 53.56392 14.39303 31119 ft 457 kts 21°
2026-05-08 16:27 53.59369 14.41223 31376 ft 460 kts 21°
2026-05-08 16:27 53.62362 14.43156 31657 ft 461 kts 21°
2026-05-08 16:27 53.65363 14.45098 31937 ft 463 kts 21°
2026-05-08 16:27 53.68372 14.47048 32266 ft 463 kts 21°
2026-05-08 16:28 53.71380 14.48999 32584 ft 464 kts 21°
2026-05-08 16:28 53.74361 14.50936 32909 ft 464 kts 21°
2026-05-08 16:28 53.77373 14.52897 33219 ft 464 kts 21°
2026-05-08 16:28 53.80387 14.54862 33523 ft 465 kts 21°
2026-05-08 16:29 53.83404 14.56832 33826 ft 465 kts 21°
2026-05-08 16:29 53.86419 14.58803 34102 ft 465 kts 21°
2026-05-08 16:29 53.89439 14.60781 34348 ft 466 kts 21°
2026-05-08 16:29 53.92465 14.62766 34581 ft 466 kts 21°
2026-05-08 16:30 53.95492 14.64754 34811 ft 466 kts 21°
2026-05-08 16:30 53.98521 14.66747 35021 ft 467 kts 21°
2026-05-08 16:30 54.01550 14.68743 35242 ft 467 kts 21°
2026-05-08 16:30 54.04582 14.70744 35463 ft 467 kts 20°
2026-05-08 16:31 54.07614 14.72732 35668 ft 467 kts 20°
2026-05-08 16:31 54.10609 14.74707 35858 ft 468 kts 21°
2026-05-08 16:31 54.13634 14.76724 36061 ft 468 kts 21°
2026-05-08 16:31 54.16670 14.78755 36251 ft 468 kts 21°
2026-05-08 16:32 54.19703 14.80781 36448 ft 468 kts 20°
2026-05-08 16:32 54.22741 14.82809 36623 ft 469 kts 20°
2026-05-08 16:32 54.25777 14.84835 36802 ft 469 kts 20°
2026-05-08 16:32 54.28816 14.86865 36979 ft 469 kts 20°
2026-05-08 16:33 54.31856 14.88899 37161 ft 469 kts 20°
2026-05-08 16:33 54.34885 14.90928 37311 ft 469 kts 20°
2026-05-08 16:33 54.37936 14.92976 37480 ft 469 kts 20°
2026-05-08 16:33 54.40934 14.94992 37637 ft 470 kts 20°
2026-05-08 16:34 54.43978 14.97042 37795 ft 470 kts 20°
2026-05-08 16:34 54.47019 14.99093 37938 ft 470 kts 20°
2026-05-08 16:34 54.50065 15.01152 38074 ft 470 kts 20°
2026-05-08 16:34 54.53110 15.03213 38216 ft 470 kts 20°
2026-05-08 16:35 54.56154 15.05276 38362 ft 470 kts 20°
2026-05-08 16:35 54.59199 15.07343 38495 ft 470 kts 20°
2026-05-08 16:35 54.62242 15.09413 38639 ft 470 kts 20°
2026-05-08 16:35 54.65281 15.11484 38775 ft 470 kts 20°
2026-05-08 16:36 54.68282 15.13532 38882 ft 470 kts 20°
2026-05-08 16:36 54.71325 15.15612 38978 ft 470 kts 20°
2026-05-08 16:36 54.77413 15.19778 39148 ft 471 kts 20°
2026-05-08 16:37 54.83524 15.23961 39202 ft 474 kts 20°
2026-05-08 16:37 54.89670 15.28197 39246 ft 477 kts 20°
2026-05-08 16:38 54.96018 15.31665 39249 ft 480 kts 13°
2026-05-08 16:38 55.02417 15.34747 39254 ft 480 kts 14°
2026-05-08 16:39 55.08854 15.37864 39261 ft 480 kts 14°
2026-05-08 16:39 55.15290 15.40978 39255 ft 480 kts 14°
2026-05-08 16:40 55.21724 15.44101 39262 ft 480 kts 14°
2026-05-08 16:40 55.28157 15.47234 39258 ft 480 kts 14°
2026-05-08 16:41 55.34541 15.50354 39268 ft 478 kts 14°
2026-05-08 16:42 55.44149 15.55070 39262 ft 478 kts 14°
2026-05-08 16:42 55.50546 15.58227 39273 ft 477 kts 14°
2026-05-08 16:43 55.56896 15.61371 39270 ft 477 kts 14°
2026-05-08 16:43 55.63283 15.64539 39262 ft 477 kts 14°
2026-05-08 16:44 55.69677 15.67720 39269 ft 477 kts 14°
2026-05-08 16:44 55.76062 15.70910 39278 ft 477 kts 14°
2026-05-08 16:45 55.82452 15.74116 39273 ft 477 kts 14°
2026-05-08 16:45 55.88798 15.77307 39274 ft 477 kts 14°
2026-05-08 16:46 55.95187 15.80528 39278 ft 477 kts 14°
2026-05-08 16:46 56.01577 15.83761 39279 ft 477 kts 14°
2026-05-08 16:47 56.07967 15.87007 39278 ft 477 kts 14°
2026-05-08 16:47 56.14357 15.90263 39286 ft 478 kts 14°
2026-05-08 16:48 56.20710 15.93513 39287 ft 478 kts 14°
2026-05-08 16:48 56.27102 15.96794 39289 ft 478 kts 14°
2026-05-08 16:49 56.33498 16.00089 39290 ft 478 kts 14°
2026-05-08 16:49 56.39889 16.03392 39288 ft 478 kts 14°
2026-05-08 16:50 56.46281 16.06708 39296 ft 478 kts 14°
2026-05-08 16:50 56.52629 16.10012 39297 ft 478 kts 14°
2026-05-08 16:51 56.59021 16.13351 39297 ft 478 kts 14°
2026-05-08 16:51 56.65410 16.16702 39298 ft 478 kts 14°
2026-05-08 16:52 56.71801 16.20063 39297 ft 478 kts 14°
2026-05-08 16:52 56.78189 16.23436 39297 ft 478 kts 14°
2026-05-08 16:53 56.87724 16.28492 39300 ft 478 kts 14°
2026-05-08 16:53 56.94106 16.31892 39302 ft 478 kts 14°
2026-05-08 16:54 57.00487 16.35303 39309 ft 478 kts 14°
2026-05-08 16:54 57.06870 16.38727 39313 ft 478 kts 14°
2026-05-08 16:55 57.13206 16.42139 39313 ft 478 kts 14°
2026-05-08 16:55 57.19585 16.45585 39316 ft 478 kts 14°
2026-05-08 16:56 57.25963 16.49044 39317 ft 478 kts 14°
2026-05-08 16:56 57.32338 16.52514 39319 ft 478 kts 14°
2026-05-08 16:57 57.38716 16.55997 39322 ft 478 kts 14°
2026-05-08 16:57 57.45043 16.59466 39323 ft 478 kts 14°
2026-05-08 16:58 57.51417 16.62973 39329 ft 478 kts 14°
2026-05-08 16:58 57.57788 16.66491 39328 ft 478 kts 14°
2026-05-08 16:59 57.64160 16.70023 39330 ft 478 kts 14°
2026-05-08 16:59 57.70525 16.73564 39335 ft 477 kts 14°
2026-05-08 17:00 57.76848 16.77094 39333 ft 477 kts 14°
2026-05-08 17:00 57.83207 16.80657 39337 ft 477 kts 14°
2026-05-08 17:01 57.89564 16.84233 39337 ft 477 kts 13°
2026-05-08 17:01 57.95918 16.87821 39336 ft 476 kts 13°
2026-05-08 17:02 58.02264 16.91417 39341 ft 476 kts 13°
2026-05-08 17:02 58.08566 16.95001 39342 ft 476 kts 13°
2026-05-08 17:03 58.14907 16.98621 39339 ft 476 kts 13°
2026-05-08 17:03 58.21243 17.02251 39345 ft 476 kts 13°
2026-05-08 17:04 58.27581 17.05895 39343 ft 476 kts 13°
2026-05-08 17:04 58.33912 17.09551 39344 ft 476 kts 13°
2026-05-08 17:05 58.40202 17.13195 39348 ft 476 kts 13°
2026-05-08 17:05 58.46538 17.16857 39348 ft 476 kts 13°
2026-05-08 17:06 58.52864 17.20581 39346 ft 476 kts 13°
2026-05-08 17:06 58.59195 17.24307 39349 ft 476 kts 13°
2026-05-08 17:07 58.65523 17.28023 39348 ft 476 kts 13°
2026-05-08 17:07 58.71808 17.31723 39348 ft 476 kts 13°
2026-05-08 17:08 58.78138 17.35463 39346 ft 476 kts 13°
2026-05-08 17:08 58.84464 17.39260 39349 ft 477 kts 14°
2026-05-08 17:09 58.90761 17.43321 39353 ft 477 kts 15°
2026-05-08 17:09 58.97058 17.47393 39353 ft 477 kts 14°
2026-05-08 17:10 59.03318 17.51423 39356 ft 477 kts 14°
2026-05-08 17:10 59.09621 17.55493 39355 ft 477 kts 14°
2026-05-08 17:11 59.15926 17.59578 39351 ft 477 kts 14°
2026-05-08 17:11 59.22228 17.63679 39346 ft 478 kts 14°
2026-05-08 17:12 59.28485 17.67765 39347 ft 478 kts 14°
2026-05-08 17:12 59.34788 17.71901 39350 ft 478 kts 14°
2026-05-08 17:13 59.41098 17.76055 39348 ft 478 kts 14°
2026-05-08 17:13 59.47404 17.80223 39349 ft 478 kts 14°
2026-05-08 17:14 59.53711 17.84408 39353 ft 478 kts 14°
2026-05-08 17:14 59.59979 17.88585 39344 ft 479 kts 14°
2026-05-08 17:15 59.66288 17.92805 39347 ft 479 kts 14°
2026-05-08 17:15 59.72597 17.97042 39344 ft 479 kts 14°
2026-05-08 17:16 59.78911 18.01299 39348 ft 479 kts 14°
2026-05-08 17:16 59.85223 18.05572 39348 ft 479 kts 14°
2026-05-08 17:17 59.91494 18.09833 39350 ft 479 kts 14°
2026-05-08 17:17 59.97804 18.14140 39347 ft 480 kts 14°
2026-05-08 17:18 60.04122 18.18469 39346 ft 480 kts 15°
2026-05-08 17:18 60.10430 18.22809 39344 ft 480 kts 15°
2026-05-08 17:19 60.16748 18.27173 39346 ft 480 kts 15°
2026-05-08 17:19 60.23016 18.31520 39345 ft 480 kts 15°
2026-05-08 17:20 60.29325 18.35912 39347 ft 480 kts 15°
2026-05-08 17:20 60.35628 18.40320 39344 ft 480 kts 15°
2026-05-08 17:21 60.41928 18.44744 39338 ft 479 kts 15°
2026-05-08 17:21 60.48230 18.49187 39340 ft 479 kts 15°
2026-05-08 17:22 60.54487 18.53616 39339 ft 479 kts 15°
2026-05-08 17:22 60.60782 18.58090 39339 ft 479 kts 15°
2026-05-08 17:23 60.63932 18.60333 39125 ft 478 kts 17°
2026-05-08 17:23 60.67047 18.62544 39336 ft 472 kts 17°
2026-05-08 17:23 60.73249 18.66989 39338 ft 473 kts 17°
2026-05-08 17:24 60.79450 18.71456 39339 ft 473 kts 17°
2026-05-08 17:24 60.85615 18.75899 39342 ft 472 kts 16°
2026-05-08 17:25 60.91898 18.79707 39343 ft 471 kts 13°
2026-05-08 17:25 60.98212 18.83331 39339 ft 471 kts 13°
2026-05-08 17:26 61.04464 18.87028 39344 ft 471 kts 13°
2026-05-08 17:26 61.10752 18.90798 39342 ft 470 kts 13°
2026-05-08 17:27 61.17040 18.94589 39342 ft 470 kts 13°
2026-05-08 17:27 61.23322 18.98396 39344 ft 470 kts 13°
2026-05-08 17:28 61.29597 19.02214 39341 ft 470 kts 13°
2026-05-08 17:28 61.35837 19.06027 39344 ft 470 kts 13°
2026-05-08 17:29 61.42110 19.09875 39343 ft 470 kts 13°
2026-05-08 17:29 61.48377 19.13736 39342 ft 470 kts 13°
2026-05-08 17:30 61.54643 19.17612 39343 ft 469 kts 13°
2026-05-08 17:30 61.60907 19.21503 39340 ft 469 kts 13°
2026-05-08 17:31 61.67119 19.25378 39340 ft 469 kts 13°
2026-05-08 17:31 61.73374 19.29297 39342 ft 469 kts 13°
2026-05-08 17:32 61.79624 19.33229 39337 ft 469 kts 13°
2026-05-08 17:32 61.85871 19.37176 39337 ft 468 kts 13°
2026-05-08 17:33 61.92074 19.41112 39335 ft 468 kts 13°
2026-05-08 17:33 61.98312 19.45087 39340 ft 468 kts 13°
2026-05-08 17:34 62.04551 19.49079 39341 ft 468 kts 13°
2026-05-08 17:34 62.10783 19.53084 39341 ft 468 kts 13°
2026-05-08 17:35 62.17010 19.57104 39344 ft 467 kts 13°
2026-05-08 17:35 62.23191 19.61110 39343 ft 467 kts 13°
2026-05-08 17:36 62.29411 19.65159 39343 ft 467 kts 13°
2026-05-08 17:36 62.35629 19.69225 39339 ft 467 kts 13°
2026-05-08 17:37 62.41846 19.73308 39340 ft 467 kts 13°
2026-05-08 17:37 62.48061 19.77406 39338 ft 467 kts 13°
2026-05-08 17:38 62.54233 19.81495 39339 ft 467 kts 13°
2026-05-08 17:38 62.60450 19.85631 39336 ft 467 kts 13°
2026-05-08 17:39 62.66665 19.89784 39338 ft 467 kts 13°
2026-05-08 17:39 62.72880 19.93955 39339 ft 467 kts 13°
2026-05-08 17:40 62.79057 19.98118 39344 ft 468 kts 13°
2026-05-08 17:40 62.85273 20.02327 39346 ft 468 kts 13°
2026-05-08 17:41 62.91438 20.06519 39347 ft 468 kts 13°
2026-05-08 17:41 62.97525 20.10678 39347 ft 468 kts 13°
2026-05-08 17:42 63.03737 20.14940 39352 ft 468 kts 13°
2026-05-08 17:42 63.09955 20.19225 39351 ft 468 kts 13°
2026-05-08 17:43 63.16127 20.23498 39349 ft 468 kts 13°
2026-05-08 17:43 63.22337 20.27816 39351 ft 468 kts 13°
2026-05-08 17:44 63.28548 20.32154 39350 ft 468 kts 13°
2026-05-08 17:44 63.34752 20.36507 39350 ft 468 kts 13°
2026-05-08 17:45 63.40964 20.40886 39351 ft 468 kts 13°
2026-05-08 17:45 63.47172 20.45281 39347 ft 468 kts 13°
2026-05-08 17:46 63.53340 20.49668 39344 ft 468 kts 13°
2026-05-08 17:46 63.59548 20.54105 39336 ft 468 kts 13°
2026-05-08 17:47 63.65762 20.58565 39330 ft 469 kts 13°
2026-05-08 17:47 63.70925 20.62287 39327 ft 469 kts 13°
2026-05-08 17:48 63.78144 20.67515 39328 ft 469 kts 13°
2026-05-08 17:48 63.84354 20.72035 39331 ft 469 kts 13°
2026-05-08 17:49 63.90567 20.76578 39334 ft 469 kts 13°
2026-05-08 17:49 63.96780 20.81143 39339 ft 469 kts 13°
2026-05-08 17:50 64.02992 20.85727 39344 ft 469 kts 13°
2026-05-08 17:50 64.09161 20.90301 39343 ft 469 kts 13°
2026-05-08 17:51 64.15366 20.94925 39343 ft 469 kts 13°
2026-05-08 17:51 64.21565 20.99565 39337 ft 468 kts 13°
2026-05-08 17:52 64.27719 21.04189 39332 ft 468 kts 13°
2026-05-08 17:53 64.37005 21.11216 39304 ft 468 kts 13°
2026-05-08 17:53 64.43186 21.15921 39287 ft 467 kts 13°
2026-05-08 17:54 64.49127 21.20415 39280 ft 467 kts 13°
2026-05-08 17:54 64.55294 21.25134 39267 ft 467 kts 13°
2026-05-08 17:55 64.61404 21.29866 39264 ft 466 kts 13°
2026-05-08 17:55 64.67561 21.34657 39266 ft 466 kts 13°
2026-05-08 17:56 64.73691 21.39445 39278 ft 466 kts 13°
2026-05-08 17:56 64.79836 21.44262 39281 ft 465 kts 14°
2026-05-08 17:57 64.85975 21.49102 39295 ft 465 kts 14°
2026-05-08 17:57 64.92069 21.53928 39302 ft 465 kts 14°
2026-05-08 17:58 64.98203 21.58800 39300 ft 465 kts 14°
2026-05-08 17:58 65.04334 21.63693 39300 ft 465 kts 14°
2026-05-08 17:59 65.10467 21.68610 39301 ft 465 kts 14°
2026-05-08 17:59 65.15557 21.72710 39302 ft 465 kts 14°
2026-05-08 18:00 65.21681 21.77666 39303 ft 465 kts 14°
2026-05-08 18:00 65.30874 21.85150 39295 ft 465 kts 14°
2026-05-08 18:01 65.36963 21.90137 39291 ft 466 kts 14°
2026-05-08 18:01 65.43095 21.95176 39326 ft 464 kts 14°
2026-05-08 18:02 65.49146 22.00205 39154 ft 456 kts 15°
2026-05-08 18:02 65.52137 22.02727 38802 ft 455 kts 14°
2026-05-08 18:02 65.55123 22.05236 38384 ft 453 kts 14°
2026-05-08 18:03 65.58100 22.07726 37976 ft 452 kts 14°
2026-05-08 18:03 65.61025 22.10169 37580 ft 451 kts 13°
2026-05-08 18:03 65.63986 22.12643 37192 ft 450 kts 13°
2026-05-08 18:03 65.66945 22.15119 36810 ft 449 kts 13°
2026-05-08 18:04 65.69894 22.17591 36417 ft 448 kts 13°
2026-05-08 18:04 65.72837 22.20064 36046 ft 447 kts 12°
2026-05-08 18:04 65.75779 22.22543 35589 ft 447 kts 12°
2026-05-08 18:04 65.78711 22.25021 35129 ft 445 kts 12°
2026-05-08 18:05 65.81619 22.27607 34665 ft 445 kts 15°
2026-05-08 18:05 65.84447 22.30738 34186 ft 447 kts 18°
2026-05-08 18:05 65.87157 22.34274 33643 ft 449 kts 22°
2026-05-08 18:05 65.89826 22.38325 33101 ft 455 kts 26°
2026-05-08 18:06 65.92423 22.42825 32569 ft 458 kts 27°
2026-05-08 18:06 65.95033 22.47300 32049 ft 458 kts 27°
2026-05-08 18:06 65.97648 22.51765 31537 ft 457 kts 27°
2026-05-08 18:06 66.00252 22.56251 31032 ft 457 kts 27°
2026-05-08 18:07 66.02838 22.60749 30551 ft 454 kts 27°
2026-05-08 18:07 66.05400 22.65241 29986 ft 450 kts 27°
2026-05-08 18:07 66.07928 22.69693 29411 ft 444 kts 27°
2026-05-08 18:07 66.10419 22.74093 28845 ft 438 kts 27°
2026-05-08 18:08 66.12839 22.78377 28305 ft 432 kts 27°
2026-05-08 18:08 66.15278 22.82699 27760 ft 429 kts 27°
2026-05-08 18:08 66.17693 22.86988 27231 ft 426 kts 27°
2026-05-08 18:08 66.20086 22.91250 26704 ft 421 kts 27°
2026-05-08 18:09 66.22449 22.95473 26191 ft 417 kts 27°
2026-05-08 18:09 66.24792 22.99666 25687 ft 414 kts 27°
2026-05-08 18:09 66.27117 23.03837 25194 ft 410 kts 27°
2026-05-08 18:09 66.29412 23.07968 24813 ft 405 kts 27°
2026-05-08 18:10 66.31690 23.12071 24451 ft 404 kts 27°
2026-05-08 18:10 66.33930 23.16115 24101 ft 402 kts 27°
2026-05-08 18:10 66.36187 23.20200 23713 ft 400 kts 27°
2026-05-08 18:10 66.38425 23.24262 23291 ft 396 kts 27°
2026-05-08 18:11 66.40642 23.28297 22875 ft 393 kts 27°
2026-05-08 18:11 66.42840 23.32302 22459 ft 390 kts 28°
2026-05-08 18:11 66.45024 23.36293 22053 ft 387 kts 28°
2026-05-08 18:11 66.47189 23.40258 21656 ft 384 kts 28°
2026-05-08 18:12 66.49339 23.44204 21257 ft 382 kts 28°
2026-05-08 18:12 66.51472 23.48126 20867 ft 380 kts 28°
2026-05-08 18:12 66.53593 23.52037 20481 ft 377 kts 28°
2026-05-08 18:12 66.55673 23.55879 20110 ft 375 kts 28°
2026-05-08 18:13 66.57766 23.59752 19732 ft 372 kts 28°
2026-05-08 18:13 66.59844 23.63607 19354 ft 371 kts 28°
2026-05-08 18:13 66.61912 23.67455 18989 ft 368 kts 28°
2026-05-08 18:13 66.63962 23.71274 18630 ft 366 kts 28°
2026-05-08 18:14 66.66007 23.75089 18212 ft 366 kts 28°
2026-05-08 18:14 66.68042 23.78895 17912 ft 365 kts 29°
2026-05-08 18:14 66.70171 23.82850 17648 ft 394 kts 29°
2026-05-08 18:14 66.72443 23.87047 17402 ft 410 kts 30°
2026-05-08 18:15 66.74699 23.91294 17328 ft 410 kts 30°
2026-05-08 18:15 66.76969 23.95689 17324 ft 411 kts 31°
2026-05-08 18:15 66.79231 24.00117 17321 ft 411 kts 31°
2026-05-08 18:15 66.81491 24.04547 17327 ft 411 kts 31°
2026-05-08 18:16 66.83753 24.08997 17328 ft 411 kts 31°
2026-05-08 18:16 66.86014 24.13445 17329 ft 411 kts 31°
2026-05-08 18:16 66.88277 24.17892 17324 ft 411 kts 31°
2026-05-08 18:16 66.90543 24.22347 17299 ft 412 kts 31°
2026-05-08 18:17 66.92809 24.26800 17035 ft 411 kts 31°
2026-05-08 18:17 66.95037 24.31180 16631 ft 409 kts 32°
2026-05-08 18:17 66.97282 24.35609 16230 ft 407 kts 32°
2026-05-08 18:17 66.99518 24.40040 15748 ft 406 kts 33°
2026-05-08 18:18 67.01746 24.44470 15233 ft 404 kts 34°
2026-05-08 18:18 67.03954 24.48872 14723 ft 402 kts 34°
2026-05-08 18:18 67.06158 24.53271 14221 ft 400 kts 35°
2026-05-08 18:18 67.08347 24.57656 13672 ft 398 kts 35°
2026-05-08 18:19 67.10514 24.62011 13110 ft 394 kts 36°
2026-05-08 18:19 67.12660 24.66332 12574 ft 391 kts 36°
2026-05-08 18:19 67.14766 24.70572 12045 ft 388 kts 36°
2026-05-08 18:19 67.16878 24.74838 11518 ft 385 kts 36°
2026-05-08 18:20 67.18967 24.79070 10990 ft 379 kts 36°
2026-05-08 18:20 67.20989 24.83181 10475 ft 362 kts 36°
2026-05-08 18:20 67.22925 24.87130 9947 ft 347 kts 36°
2026-05-08 18:20 67.24886 24.90496 9393 ft 331 kts 22°
2026-05-08 18:21 67.27039 24.92078 8853 ft 316 kts
2026-05-08 18:21 67.29192 24.92469 8319 ft 305 kts
2026-05-08 18:21 67.31280 24.92841 7790 ft 297 kts
2026-05-08 18:21 67.33288 24.93221 7296 ft 290 kts
2026-05-08 18:22 67.35273 24.93610 6771 ft 283 kts
2026-05-08 18:22 67.37216 24.93991 6235 ft 277 kts
2026-05-08 18:22 67.39119 24.94363 5694 ft 272 kts
2026-05-08 18:22 67.40989 24.94728 5236 ft 266 kts
2026-05-08 18:23 67.42805 24.95082 4845 ft 260 kts
2026-05-08 18:23 67.44622 24.95435 4446 ft 263 kts
2026-05-08 18:23 67.46439 24.95787 4135 ft 259 kts
2026-05-08 18:23 67.48196 24.96129 4018 ft 247 kts
2026-05-08 18:24 67.49837 24.96451 4011 ft 232 kts
2026-05-08 18:24 67.51398 24.96619 4006 ft 217 kts 355°
2026-05-08 18:24 67.52805 24.95945 3997 ft 193 kts 343°
2026-05-08 18:24 67.54049 24.95061 4059 ft 185 kts 345°
2026-05-08 18:25 67.55250 24.94269 3952 ft 172 kts 346°
2026-05-08 18:25 67.56391 24.93555 3703 ft 164 kts 345°
2026-05-08 18:25 67.57485 24.92848 3470 ft 156 kts 346°
2026-05-08 18:25 67.58491 24.92202 3222 ft 142 kts 345°
2026-05-08 18:26 67.59405 24.91630 2977 ft 131 kts 334°
2026-05-08 18:26 67.60278 24.91030 2717 ft 128 kts 334°
2026-05-08 18:26 67.61156 24.90338 2513 ft 132 kts 342°
2026-05-08 18:26 67.62010 24.89692 2473 ft 129 kts 339°
2026-05-08 18:27 67.62901 24.89204 2331 ft 130 kts 347°
2026-05-08 18:27 67.63485 24.88924 2218 ft 129 kts 347°
2026-05-08 18:27 67.64656 24.88174 1790 ft 130 kts 346°
2026-05-08 18:27 67.65522 24.87610 1525 ft 124 kts 347°
2026-05-08 18:28 67.66368 24.87051 1337 ft 128 kts 346°
2026-05-08 18:28 67.67236 24.86547 1094 ft 126 kts 343°
2026-05-08 18:28 67.68079 24.85966 917 ft 127 kts 348°
2026-05-08 18:28 67.68929 24.85449 698 ft 121 kts 347°
2026-05-08 18:29 67.69724 24.84951 651 ft 96 kts 346°
2026-05-08 18:29 67.70146 24.84680 646 ft 49 kts 347°
2026-05-08 18:29 67.70437 24.84516 648 ft 36 kts 342°
2026-05-08 18:29 67.70666 24.84333 643 ft 34 kts 344°
2026-05-08 18:30 67.70864 24.84200 642 ft 26 kts 346°
2026-05-08 18:30 67.71022 24.84100 643 ft 20 kts 347°
2026-05-08 18:30 67.71117 24.84092 643 ft 9 kts 19°
2026-05-08 18:30 67.71167 24.84081 642 ft 4 kts 342°
2026-05-08 18:31 67.71174 24.84028 641 ft 3 kts 236°
2026-05-08 18:31 67.71142 24.84021 641 ft 7 kts 168°
2026-05-08 18:31 67.71064 24.84060 644 ft 14 kts 168°
2026-05-08 18:31 67.70947 24.84138 643 ft 22 kts 165°
2026-05-08 18:32 67.70777 24.84251 643 ft 27 kts 165°
2026-05-08 18:32 67.70590 24.84373 645 ft 28 kts 166°
2026-05-08 18:32 67.70401 24.84495 648 ft 28 kts 166°
2026-05-08 18:32 67.70204 24.84620 646 ft 30 kts 167°
2026-05-08 18:33 67.69997 24.84752 648 ft 31 kts 167°
2026-05-08 18:33 67.69790 24.84885 649 ft 28 kts 167°
2026-05-08 18:33 67.69665 24.84969 649 ft 11 kts 165°
2026-05-08 18:33 67.69602 24.85013 650 ft 0 kts 165°
2026-05-08 18:34 67.69599 24.85015 650 ft 1 kts 165°
2026-05-08 18:34 67.69592 24.85020 651 ft 2 kts 165°
2026-05-08 18:34 67.69558 24.85043 652 ft 8 kts 165°
2026-05-08 18:34 67.69517 24.85161 652 ft 11 kts 97°
2026-05-08 18:35 67.69528 24.85366 651 ft 9 kts 79°
2026-05-08 18:35 67.69557 24.85499 651 ft 5 kts 45°
2026-05-08 18:35 67.69580 24.85538 651 ft 4 kts
2026-05-08 18:35 67.69605 24.85536 653 ft 4 kts 357°
2026-05-08 18:36 67.69612 24.85526 652 ft 2 kts 332°
2026-05-08 18:36 67.69621 24.85514 651 ft 2 kts 332°
2026-05-08 18:36 67.69627 24.85509 650 ft 2 kts 337°
2026-05-08 18:36 67.69631 24.85506 650 ft 1 kts 345°
2026-05-08 18:37 67.69632 24.85505 650 ft 0 kts 345°
2026-05-08 18:39 52.36545 13.50527 152 ft 0 kts 74°